This is the latest recevied weather packets stored in our database for station/object K0CPM-2. If no packets are shown the sender has not sent any weather packets the latest 10 day(s).
| Time | Temp. | Humidity | Pressure | Rain* | Wind** | Luminosity | Snow |
|---|---|---|---|---|---|---|---|
| 1777419952 | 26.67° C | 78% | 1011.9 hPa | 0 mm | - | - | - |
| 1777419051 | 27.22° C | 76% | 1011.7 hPa | 0 mm | - | - | - |
| 1777418151 | 27.78° C | 75% | 1011.8 hPa | 0 mm | - | - | - |
| 1777417260 | 28.33° C | 73% | 1011.9 hPa | 0 mm | - | - | - |
| 1777416358 | 28.33° C | 73% | 1011.8 hPa | 0 mm | - | - | - |
| 1777415448 | 28.33° C | 71% | 1011.9 hPa | 0 mm | - | - | - |
| 1777414546 | 29.44° C | 69% | 1012 hPa | 0 mm | - | - | - |
| 1777413646 | 29.44° C | 68% | 1012 hPa | 0 mm | - | - | - |
| 1777412746 | 29.44° C | 68% | 1012.1 hPa | 0 mm | - | - | - |
| 1777411849 | 29.44° C | 67% | 1012.2 hPa | 0 mm | - | - | - |
| 1777410951 | 29.44° C | 69% | 1012.4 hPa | 0 mm | - | - | - |
| 1777410041 | 29.44° C | 68% | 1012.4 hPa | 0 mm | - | - | - |
| 1777409149 | 29.44° C | 70% | 1012.3 hPa | 0 mm | - | - | - |
| 1777408259 | 29.44° C | 71% | 1012.8 hPa | 0 mm | - | - | - |
| 1777407350 | 30° C | 70% | 1013.2 hPa | 0 mm | - | - | - |
| 1777406445 | 29.44° C | 69% | 1013.6 hPa | 0 mm | - | - | - |
| 1777405537 | 29.44° C | 71% | 1013.5 hPa | 0 mm | - | - | - |
| 1777404649 | 28.89° C | 71% | 1013.7 hPa | 0 mm | - | - | - |
| 1777403734 | 30° C | 69% | 1013.9 hPa | 0 mm | - | - | - |
| 1777402831 | 30.56° C | 68% | 1014.3 hPa | 0 mm | - | - | - |
| 1777401948 | 30.56° C | 65% | 1014.6 hPa | 0 mm | - | - | - |
| 1777401035 | 30.56° C | 66% | 1014.9 hPa | 0 mm | - | - | - |
| 1777400129 | 30.56° C | 66% | 1015 hPa | 0 mm | - | - | - |
| 1777399226 | 30.56° C | 65% | 1015 hPa | 0 mm | - | - | - |
| 1777398325 | 30.56° C | 63% | 1014.9 hPa | 0 mm | - | - | - |
* Rain latest hour (hover to see other rain measurements)
** Current wind speed in m/s (hover to see current wind gust speed)